QPF
0.00 0.00 0.00 0.00 0.00 0.00 0.00 0.00 0.00 0.00 0.00 0.00 0.00 0.00 0.00 0.00 0.00 0.00 0.00 0.00 0.00 0.00 0.00 0.00 0.00 0.00 0.00 0.00 0.00 0.00 0.00 0.00 0.00
0.00 0.00 0.00 0.00 0.00 0.00 0.00 0.00 0.00 0.00 0.00 0.00 0.00 0.00 0.00 0.00 0.00 0.00 0.00 0.00 0.00 0.00 0.00 0.00 0.00 0.00 0.00 0.00 0.00 0.00 0.00 0.00 0.00
0.00 0.00 0.00 0.00 0.00 0.00 0.00 0.00 0.00 0.00 0.00 0.00 0.00 0.00 0.00 0.00 0.00 0.00 0.00 0.00 0.00 0.00 0.00 0.00 0.00 0.00 0.00 0.00 0.00 0.00 0.00 0.00 0.00
0.00 0.00 0.00 0.00 0.00 0.00 0.00 0.00 0.00 0.00 0.00 0.00 0.00 0.00 0.00 0.00 0.00 0.00 0.00 0.00 0.00 0.00 0.00 0.00 0.00 0.00 0.00 0.00 0.00 0.00 0.00 0.00 0.00
0.00 0.00 0.00 0.00 0.00 0.00 0.00 0.00 0.00 0.00 0.00 0.00 0.00 0.00 0.00 0.00 0.00 0.00 0.00 0.00 0.00 0.00 0.00 0.00 0.00 0.00 0.00 0.00 0.00 0.00 0.00 0.00 0.00
0.00 0.00 0.00 0.00 0.00 0.00 0.00 0.00 0.00 0.00 0.00 0.00 0.00 0.00 0.00 0.00 0.00 0.00 0.00 0.00 0.00 0.00 0.00 0.00 0.00 0.00 0.00 0.00 0.00 0.00 0.00 0.00 0.00
0.00 0.00 0.00 0.00 0.00 0.00 0.00 0.00 0.00 0.00 0.00 0.00 0.00 0.00 0.00 0.00 0.00 0.00 0.00 0.00 0.00 0.00 0.00 0.00 0.00 0.00 0.00 0.00 0.00 0.00 0.00 0.00 0.00
0.00 0.00 0.00 0.00 0.00 0.00 0.00 0.00 0.00 0.00 0.00 0.00 0.00 0.00 0.00 0.00 0.00 0.00 0.00 0.00 0.00 0.00 0.00 0.00 0.00 0.00 0.00 0.00 0.00 0.00 0.00 0.00 0.00
0.00 0.00 0.00 0.00 0.00 0.00 0.00 0.00 0.00 0.00 0.00 0.00 0.00 0.00 0.00 0.00 0.00 0.00 0.00 0.00 0.00 0.00 0.00 0.00 0.00 0.00 0.00 0.00 0.00 0.00 0.00 0.00 0.00
0.00 0.00 0.00 0.00 0.00 0.00 0.00 0.00 0.00 0.00 0.00 0.00 0.00 0.00 0.00 0.00 0.00 0.00 0.00 0.00 0.00 0.00 0.00 0.00 0.00 0.00 0.00 0.00 0.00 0.00 0.00 0.00 0.00
0.00 0.00 0.00 0.00 0.00 0.00 0.00 0.00 0.00 0.00 0.00 0.00 0.00 0.00 0.00 0.00 0.00 0.00 0.00 0.00 0.00 0.00 0.00 0.00 0.00 0.00 0.00 0.00 0.00 0.00 0.00 0.00 0.00
0.00 0.00 0.00 0.00 0.00 0.00 0.00 0.00 0.00 0.00 0.00 0.00 0.00 0.00 0.00 0.00 0.00 0.00 0.00 0.00 0.00 0.00 0.00 0.00 0.00 0.00 0.00 0.00 0.00 0.00 0.00 0.00 0.00
0.00 0.00 0.00 0.00 0.00 0.00 0.00 0.00 0.00 0.00 0.00 0.00 0.00 0.00 0.00 0.00 0.00 0.00 0.00 0.00 0.00 0.00 0.00 0.00 0.00 0.00 0.00 0.00 0.00 0.00 0.00 0.00 0.00
0.00 0.00 0.00 0.00 0.00 0.00 0.00 0.00 0.00 0.00 0.00 0.00 0.00 0.00 0.00 0.00 0.00 0.00 0.00 0.00 0.00 0.00 0.00 0.00 0.00 0.00 0.00 0.00 0.00 0.00 0.00 0.00 0.00
0.00 0.00 0.00 0.00 0.00 0.00 0.00 0.00 0.00 0.00 0.00 0.00 0.00 0.00 0.00 0.00 0.00 0.00 0.00 0.00 0.00 0.00 0.00 0.00 0.00 0.00 0.00 0.00 0.00 0.00 0.00 0.00 0.00
0.00 0.00 0.00 0.00 0.00 0.00 0.00 0.00 0.00 0.00 0.00 0.00 0.00 0.00 0.00 0.00 0.00 0.00 0.00 0.00 0.00 0.00 0.00 0.00 0.00 0.00 0.00 0.00 0.00 0.00 0.00 0.00 0.00
0.00 0.00 0.00 0.00 0.00 0.00 0.00 0.00 0.00 0.00 0.00 0.00 0.00 0.00 0.00 0.00 0.00 0.00 0.00 0.00 0.00 0.00 0.00 0.00 0.00 0.00 0.00 0.00 0.00 0.00 0.00 0.00 0.00
0.00 0.00 0.00 0.00 0.00 0.00 0.00 0.00 0.00 0.00 0.00 0.00 0.00 0.00 0.00 0.00 0.00 0.00 0.00 0.00 0.00 0.00 0.00 0.00 0.00 0.00 0.00 0.00 0.00 0.00 0.00 0.00 0.00
0.00 0.00 0.00 0.00 0.00 0.00 0.00 0.00 0.00 0.00 0.00 0.00 0.00 0.00 0.00 0.00 0.00 0.00 0.00 0.00 0.00 0.00 0.00 0.00 0.00 0.00 0.00 0.00 0.00 0.00 0.00 0.00 0.00
0.00 0.00 0.00 0.00 0.00 0.00 0.00 0.01 0.01 0.01 0.01 0.00 0.00 0.00 0.00 0.00 0.00 0.00 0.00 0.00 0.00 0.00 0.00 0.00 0.00 0.00 0.00 0.00 0.00 0.00 0.00 0.00 0.00
MSLP
1014.57 1014.61 1014.65 1014.87 1014.93 1014.98 1015.00 1014.92 1014.69 1014.68 1014.61 1014.58 1014.82 1014.86 1014.91 1015.04 1015.17 1015.01 1014.75 1014.80 1014.58 1014.74 1014.78 1014.68 1014.67 1014.65 1014.60 1014.70 1014.77 1014.78 1014.65 1014.58 1014.45
1014.55 1014.62 1014.68 1014.80 1014.95 1014.98 1014.94 1014.87 1014.78 1014.62 1014.77 1014.74 1014.56 1014.67 1014.76 1014.93 1015.08 1014.97 1014.85 1014.66 1014.53 1014.70 1014.81 1014.77 1014.80 1014.83 1014.86 1014.90 1014.94 1014.93 1014.87 1014.86 1014.75
1014.39 1014.54 1014.63 1014.73 1014.86 1014.84 1014.79 1014.80 1014.75 1014.71 1014.74 1014.67 1014.49 1014.57 1014.66 1014.80 1014.82 1014.77 1014.86 1014.58 1014.47 1014.58 1014.71 1014.74 1014.78 1014.80 1014.82 1014.83 1014.90 1014.85 1014.82 1014.88 1014.81
1014.27 1014.42 1014.59 1014.56 1014.63 1014.63 1014.63 1014.66 1014.61 1014.54 1014.52 1014.52 1014.46 1014.52 1014.53 1014.69 1014.69 1014.57 1014.73 1014.31 1014.25 1014.35 1014.40 1014.43 1014.45 1014.48 1014.58 1014.71 1014.76 1014.75 1014.70 1014.76 1014.76
1014.26 1014.39 1014.40 1014.32 1014.45 1014.49 1014.46 1014.43 1014.34 1014.31 1014.33 1014.32 1014.37 1014.38 1014.41 1014.54 1014.74 1014.64 1014.53 1014.19 1013.93 1014.09 1014.30 1014.31 1014.28 1014.30 1014.38 1014.49 1014.53 1014.53 1014.46 1014.41 1014.39
1014.15 1014.19 1014.28 1014.20 1014.22 1014.20 1014.17 1014.15 1014.07 1014.01 1014.00 1014.01 1014.09 1014.19 1014.27 1014.38 1014.49 1014.45 1014.18 1013.95 1013.62 1013.63 1013.76 1013.83 1013.90 1013.87 1013.92 1013.97 1014.06 1014.12 1014.15 1014.06 1014.10
1014.03 1014.11 1014.14 1013.97 1013.73 1013.67 1013.74 1013.74 1013.72 1013.75 1013.95 1013.99 1013.90 1014.07 1014.13 1014.14 1014.06 1014.02 1013.76 1013.59 1013.26 1013.20 1013.33 1013.37 1013.42 1013.45 1013.43 1013.45 1013.52 1013.54 1013.59 1013.57 1013.57
1013.77 1013.86 1013.79 1013.64 1013.56 1013.66 1013.54 1013.58 1013.63 1013.71 1013.95 1014.06 1014.07 1014.00 1013.97 1013.90 1013.77 1013.55 1013.37 1013.18 1012.89 1012.66 1012.68 1012.81 1012.87 1012.88 1012.91 1012.88 1012.88 1012.88 1012.82 1012.93 1012.97
1013.53 1013.47 1013.28 1013.36 1013.41 1013.53 1013.60 1013.65 1013.67 1013.70 1013.68 1013.78 1013.81 1013.72 1013.63 1013.48 1013.35 1013.14 1012.91 1012.61 1012.30 1011.98 1011.92 1011.99 1012.12 1012.18 1012.20 1012.20 1012.23 1012.20 1012.25 1012.28 1012.26
1013.11 1013.03 1013.02 1012.94 1013.01 1013.15 1013.30 1013.37 1013.40 1013.46 1013.36 1013.26 1013.30 1013.15 1013.03 1012.90 1012.84 1012.62 1012.40 1012.22 1012.07 1011.75 1011.49 1011.41 1011.37 1011.33 1011.35 1011.41 1011.40 1011.46 1011.49 1011.54 1011.68
1012.57 1012.55 1012.52 1012.45 1012.64 1012.61 1012.66 1012.77 1012.86 1012.82 1012.88 1012.87 1012.78 1012.71 1012.54 1012.23 1011.95 1011.83 1011.63 1011.41 1011.21 1010.97 1010.75 1010.62 1010.60 1010.64 1010.56 1010.45 1010.44 1010.59 1010.67 1010.73 1010.83
1011.88 1012.09 1012.06 1012.14 1012.41 1012.43 1012.53 1012.59 1012.73 1012.71 1012.58 1012.37 1012.05 1011.79 1011.55 1011.56 1011.43 1011.18 1010.92 1010.74 1010.52 1010.31 1010.04 1009.88 1009.90 1009.82 1009.76 1009.62 1009.49 1009.58 1009.71 1009.85 1009.97
1011.86 1011.97 1011.95 1011.84 1011.91 1011.96 1012.05 1012.04 1012.05 1011.94 1011.81 1011.61 1011.45 1011.23 1010.97 1010.74 1010.38 1010.16 1010.07 1009.97 1009.82 1009.67 1009.50 1009.29 1009.10 1009.04 1008.95 1008.75 1008.65 1008.68 1008.79 1008.90 1008.90
1011.05 1011.11 1011.05 1011.05 1011.26 1011.28 1011.33 1011.34 1011.50 1011.34 1011.08 1010.91 1010.71 1010.50 1010.22 1009.90 1009.64 1009.31 1009.13 1008.93 1008.76 1008.70 1008.51 1008.36 1008.23 1008.05 1008.01 1008.02 1007.90 1007.84 1007.89 1007.92 1007.89
1010.23 1010.35 1010.33 1010.44 1010.66 1010.65 1010.76 1010.75 1010.69 1010.59 1010.41 1010.50 1010.06 1009.63 1009.32 1008.91 1008.54 1008.19 1007.99 1007.71 1007.50 1007.39 1007.27 1007.29 1007.27 1007.13 1007.00 1007.06 1007.03 1006.96 1006.80 1006.86 1006.91
1009.77 1009.75 1009.67 1009.71 1009.82 1009.54 1009.55 1009.72 1009.92 1009.81 1010.02 1010.24 1009.37 1008.98 1008.49 1007.98 1007.52 1007.43 1007.25 1006.85 1006.67 1006.52 1006.31 1006.16 1006.14 1005.93 1005.92 1005.79 1005.80 1005.69 1005.62 1005.60 1005.56
1009.07 1009.10 1008.99 1008.95 1008.99 1008.90 1008.84 1009.00 1009.04 1008.92 1009.09 1009.11 1008.80 1007.93 1006.99 1006.35 1006.17 1005.98 1005.75 1005.42 1005.47 1005.41 1005.40 1005.27 1004.95 1005.08 1005.04 1004.77 1004.62 1004.52 1004.42 1004.44 1004.40
1008.73 1008.57 1008.36 1008.12 1008.13 1007.93 1007.80 1008.03 1008.20 1008.02 1007.84 1008.08 1008.18 1007.38 1006.26 1006.03 1005.40 1005.08 1005.00 1004.77 1004.62 1004.26 1004.29 1004.33 1004.07 1003.87 1003.94 1003.77 1003.62 1003.38 1003.32 1003.20 1003.24
1008.63 1008.43 1008.16 1007.85 1007.64 1007.44 1007.05 1006.92 1006.96 1007.09 1006.86 1006.65 1006.74 1006.24 1005.87 1005.51 1004.54 1004.27 1004.09 1004.08 1003.73 1003.53 1003.45 1003.28 1003.00 1002.86 1002.89 1002.74 1002.37 1002.16 1002.26 1002.13 1002.04
1008.95 1008.65 1008.18 1007.71 1007.36 1007.01 1006.67 1006.39 1006.32 1006.06 1005.87 1005.68 1005.43 1005.16 1004.91 1004.71 1004.30 1003.10 1002.75 1002.56 1002.60 1002.40 1002.42 1002.23 1002.07 1002.16 1001.92 1001.86 1001.58 1001.32 1001.22 1001.15 1001.03
Thickness
5739 5737 5735 5732 5730 5727 5725 5723 5722 5718 5716 5712 5708 5705 5703 5700 5698 5696 5696 5694 5692 5689 5686 5683 5681 5678 5676 5672 5668 5666 5665 5664 5662
5736 5733 5732 5729 5727 5724 5723 5721 5718 5716 5712 5709 5707 5704 5701 5697 5695 5694 5692 5691 5688 5684 5681 5678 5675 5672 5669 5666 5663 5660 5658 5656 5655
5733 5731 5729 5727 5724 5722 5721 5718 5716 5713 5709 5707 5706 5703 5699 5695 5694 5692 5688 5687 5685 5681 5677 5675 5672 5669 5666 5663 5659 5657 5655 5652 5651
5731 5729 5726 5724 5722 5721 5719 5717 5715 5712 5709 5706 5703 5700 5697 5693 5691 5689 5686 5686 5683 5679 5676 5674 5671 5667 5663 5659 5656 5653 5651 5648 5645
5728 5726 5724 5722 5720 5719 5717 5715 5714 5712 5709 5706 5702 5699 5696 5693 5688 5686 5684 5683 5682 5677 5673 5670 5667 5664 5660 5656 5653 5650 5647 5645 5643
5726 5724 5722 5720 5718 5717 5715 5713 5712 5710 5708 5705 5701 5698 5695 5692 5688 5685 5683 5681 5680 5677 5673 5669 5665 5662 5659 5656 5652 5648 5645 5642 5638
5723 5721 5719 5718 5718 5717 5714 5712 5710 5708 5705 5702 5699 5695 5692 5690 5687 5683 5681 5679 5678 5675 5670 5667 5663 5660 5657 5654 5650 5647 5644 5641 5637
5720 5719 5718 5717 5716 5713 5711 5708 5706 5703 5700 5696 5694 5691 5689 5686 5683 5681 5678 5675 5674 5673 5669 5665 5662 5658 5654 5651 5648 5645 5643 5639 5635
5717 5715 5715 5712 5711 5708 5705 5703 5700 5697 5695 5691 5689 5687 5684 5682 5680 5678 5676 5673 5673 5672 5669 5665 5660 5657 5653 5649 5645 5642 5638 5635 5632
5714 5712 5710 5709 5707 5704 5700 5697 5694 5692 5690 5688 5684 5682 5681 5679 5677 5675 5673 5668 5665 5664 5662 5660 5657 5654 5651 5647 5644 5639 5636 5631 5627
5712 5710 5708 5705 5702 5699 5696 5693 5690 5688 5685 5682 5679 5677 5675 5675 5674 5672 5670 5668 5665 5663 5661 5658 5654 5649 5647 5646 5643 5638 5634 5629 5624
5707 5704 5703 5700 5695 5692 5689 5685 5681 5679 5677 5676 5675 5675 5673 5671 5669 5667 5665 5663 5661 5659 5657 5655 5650 5647 5643 5642 5640 5636 5631 5626 5622
5702 5700 5697 5696 5693 5690 5686 5683 5679 5677 5674 5673 5671 5671 5668 5667 5666 5665 5660 5658 5656 5653 5650 5649 5647 5643 5639 5637 5636 5632 5628 5624 5620
5701 5698 5696 5693 5689 5686 5683 5679 5674 5674 5671 5667 5666 5664 5663 5663 5663 5660 5657 5656 5653 5650 5648 5646 5642 5640 5635 5631 5629 5627 5624 5620 5616
5701 5698 5695 5690 5686 5684 5679 5675 5671 5669 5667 5661 5661 5660 5660 5661 5661 5659 5656 5654 5652 5650 5648 5643 5638 5636 5633 5627 5624 5621 5620 5615 5610
5697 5695 5693 5688 5684 5684 5681 5675 5669 5667 5657 5650 5655 5654 5655 5657 5656 5651 5648 5648 5644 5643 5642 5639 5636 5634 5630 5627 5622 5619 5617 5613 5609
5695 5692 5690 5687 5682 5679 5675 5669 5664 5661 5653 5649 5644 5648 5658 5660 5652 5651 5649 5648 5644 5641 5637 5633 5633 5628 5626 5624 5619 5616 5614 5610 5606
5688 5686 5684 5682 5677 5674 5670 5663 5656 5653 5652 5644 5636 5633 5642 5640 5646 5643 5641 5639 5636 5637 5633 5628 5627 5625 5621 5617 5615 5612 5608 5607 5602
5677 5676 5674 5672 5668 5666 5664 5660 5655 5648 5645 5642 5637 5636 5633 5626 5631 5638 5631 5629 5628 5627 5623 5622 5621 5621 5614 5610 5610 5608 5603 5601 5599
5663 5661 5660 5659 5658 5656 5653 5650 5644 5641 5637 5634 5630 5627 5624 5621 5615 5618 5628 5625 5622 5619 5615 5613 5612 5610 5608 5604 5601 5598 5597 5597 5594